Location: Waco, TX
(31.5480°N, 97.1670°W)
Time: 12:31:27
(UTC-05:00)

ISS - Pass Details

Date: 09 May 2021
Orbit: 417 x 422 km, 51.6° (Epoch: 15 May)

Event Time Altitude Azimuth Distance (km) Brightness Sun altitude
Rises 07:36:09 0° 319° (NW) 2,368 -0.2 11.3°
Reaches altitude 10° 07:38:17 10° 324° (NW) 1,502 -1.1 11.8°
Maximum altitude 07:41:37 55° 43° (NE) 509 -2.6 12.5°
Drops below altitude 10° 07:44:55 10° 123° (ESE) 1,496 -0.2 13.1°
Sets 07:47:02 0° 127° (SE) 2,357 0.7 13.6°
